Location: Unspecified
(50.1500°N, 0.0000°E)
Time: 00:43:21
(UTC+00:00)

NOAA 16 DEB - Visible Passes

Search period start: 04 April 2026 00:00
Search period end: 14 April 2026 00:00
Orbit: 734 x 827 km, 99.0° (Epoch: 29 March)

Date Brightness Start Highest point End Pass type
(mag) Time Alt. Az. Time Alt. Az. Time Alt. Az.
4 Apr ? 21:17:39 10° NE 21:20:42 25° ENE 21:20:42 25° ENE visible
4 Apr ? 22:56:37 10° N 23:01:13 48° NW 23:01:13 48° NW visible
5 Apr ? 00:38:42 10° NW 00:39:48 11° NW 00:40:55 10° WNW visible
5 Apr ? 20:46:12 10° NE 20:48:01 15° ENE 20:48:01 15° ENE visible
5 Apr ? 22:24:04 10° NNE 22:28:32 64° N 22:28:32 64° N visible
6 Apr ? 00:04:31 10° NNW 00:07:56 18° NW 00:09:03 17° WNW visible
6 Apr ? 21:51:43 10° NNE 21:55:51 46° ENE 21:55:51 46° ENE visible
6 Apr ? 23:31:25 10° N 23:35:55 29° WNW 23:36:22 28° WNW visible
7 Apr ? 21:19:40 10° NE 21:23:10 27° ENE 21:23:10 27° ENE visible
7 Apr ? 22:58:39 10° N 23:03:41 48° WNW 23:03:41 48° WNW visible
8 Apr ? 00:40:51 10° NW 00:41:49 10° NW 00:42:48 10° WNW visible
8 Apr ? 20:48:09 10° NE 20:50:28 16° ENE 20:50:28 16° ENE visible
8 Apr ? 22:26:05 10° NNE 22:30:59 75° N 22:30:59 75° N visible
9 Apr ? 00:06:33 10° NNW 00:09:58 17° NW 00:11:31 15° WNW visible
9 Apr ? 21:53:44 10° NNE 21:58:18 51° ENE 21:58:18 51° ENE visible
9 Apr ? 23:33:27 10° N 23:37:57 28° WNW 23:38:49 27° WNW visible
10 Apr ? 21:21:39 10° NNE 21:25:35 30° ENE 21:25:35 30° ENE visible
10 Apr ? 23:00:40 10° N 23:05:48 47° WNW 23:06:07 47° WNW visible
11 Apr ? 00:43:00 10° NW 00:43:49 10° NW 00:44:38 10° NW visible
11 Apr ? 20:50:06 10° NE 20:52:54 17° E 20:52:54 17° E visible
11 Apr ? 22:28:05 10° NNE 22:33:25 82° WNW 22:33:25 82° WNW visible
12 Apr ? 00:08:35 10° NNW 00:11:57 17° NW 00:13:56 14° WNW visible
12 Apr ? 21:55:43 10° NNE 22:00:42 56° E 22:00:42 56° E visible
12 Apr ? 23:35:28 10° N 23:39:57 28° WNW 23:41:14 25° W visible
13 Apr ? 21:23:37 10° NNE 21:28:00 31° E 21:28:00 31° E visible
13 Apr ? 23:02:40 10° N 23:07:47 46° WNW 23:08:31 44° W visible
